Kecskemet, Hungary

7:21 AM CET on January 20, 2018 (GMT +0100)
Kecskemet

Weather History for LHKE - March, 2013

Change the Weather History Date:

Monday, March 4, 2013

  Actual Average (LHBP) Record (LHBP)
Temperature  
Mean Temperature 36 °F -  
Max Temperature 48 °F 44 °F 64 °F (1998)
Min Temperature 24 °F 28 °F 21 °F (2005)
Degree Days  
Heating Degree Days 29    
Moisture  
Dew Point 24 °F    
Average Humidity 67    
Maximum Humidity 93    
Minimum Humidity 32    
Precipitation  
Precipitation 0.00 in - - ()
Sea Level Pressure  
Sea Level Pressure 30.24 in    
Wind  
Wind Speed 4 mph ()    
Max Wind Speed 7 mph    
Max Gust Speed -    
Visibility 4.5 miles    
Events      
Averages and records for this station are not official NWS values.
T = Trace of Precipitation, MM = Missing Value Source: Averaged Metar Reports

Daily Weather History Graph

Daily Weather History Graph

Search for Another Location

Airport or City:

Trip Planner

Search our weather history database for the weather conditions in past years. The results will help you decide how hot, cold, wet, or windy it might be!

Date:

Astronomy

Mar. 04, 2013 Rise Set
Actual Time 6:15 AM CET 5:30 PM CET
Civil Twilight 5:44 AM CET 6:01 PM CET
Nautical Twilight 5:09 AM CET 6:36 PM CET
Astronomical Twilight 4:34 AM CET 7:12 PM CET
Moon 12:20 AM CET (3/4) 9:40 AM CET (3/4)
Length of Visible Light 12h 16m
Length of Day
11h 15m
Waning Gibbous, 55% of the Moon is Illuminated
Mar 4
Waning Gibbous
Mar 4
Last Quarter
Mar 11
New
Mar 19
First Quarter
Mar 27
Full

Hourly Weather History & Observations

Time (CET) Temp. Windchill Dew Point Humidity Pressure Visibility Wind Dir Wind Speed Gust Speed Precip Events Conditions
12:15 AM 30.2 °F 23.5 °F 26.6 °F 86% 30.09 in - WNW 6.7 mph - N/A   Clear
12:45 AM 30.2 °F 23.5 °F 26.6 °F 86% 30.12 in - NW 6.7 mph - N/A   Clear
1:15 AM 28.4 °F 23.4 °F 24.8 °F 86% 30.12 in - NW 4.5 mph - N/A   Clear
1:45 AM 28.4 °F 23.4 °F 24.8 °F 86% 30.12 in - NW 4.5 mph - N/A   Clear
2:15 AM 26.6 °F 21.3 °F 24.8 °F 93% 30.12 in - WNW 4.5 mph - N/A   Clear
2:45 AM 26.6 °F 21.3 °F 24.8 °F 93% 30.12 in - WNW 4.5 mph - N/A   Clear
3:15 AM 28.4 °F 21.4 °F 24.8 °F 86% 30.12 in - West 6.7 mph - N/A   Clear
3:45 AM 26.6 °F 19.2 °F 24.8 °F 93% 30.15 in - West 6.7 mph - N/A   Clear
4:15 AM 24.8 °F 17.1 °F 23.0 °F 93% 30.15 in - West 6.7 mph - N/A   Clear
4:45 AM 24.8 °F 17.1 °F 23.0 °F 93% 30.15 in - WNW 6.7 mph - N/A   Clear
5:15 AM 24.8 °F 17.1 °F 23.0 °F 93% 30.18 in 5.0 mi WNW 6.7 mph - N/A   Clear
5:45 AM - - - N/A% - 3.1 mi WNW 6.7 mph - N/A   Mostly Cloudy
6:15 AM 24.8 °F 19.2 °F 23.0 °F 93% 30.18 in 4.3 mi WNW 4.5 mph - N/A   Unknown
7:45 AM 30.2 °F 25.5 °F 28.4 °F 93% 30.24 in 5.0 mi WNW 4.5 mph - N/A   Clear
8:15 AM 33.8 °F 27.9 °F 28.4 °F 81% 30.24 in - WNW 6.7 mph - N/A   Clear
8:45 AM - - - N/A% - 6.2 mi WNW 6.7 mph - N/A   Clear
9:15 AM 39.2 °F 34.4 °F 26.6 °F 61% 30.24 in - WNW 6.7 mph - N/A   Clear
9:45 AM 41.0 °F 36.5 °F 24.8 °F 53% 30.27 in - WNW 6.7 mph - N/A   Clear
10:15 AM 42.8 °F 40.2 °F 24.8 °F 49% 30.27 in - West 4.5 mph - N/A   Clear
10:45 AM 42.8 °F 40.2 °F 23.0 °F 46% 30.27 in - WNW 4.5 mph - N/A   Clear
11:15 AM 44.6 °F - 23.0 °F 43% 30.27 in - Variable 2.2 mph - N/A   Clear
11:45 AM - - - N/A% - - Variable 2.2 mph - N/A   Clear
12:15 PM 44.6 °F - 23.0 °F 43% 30.27 in - Variable 2.2 mph - N/A   Clear
1:15 PM 46.4 °F - 21.2 °F 37% 30.27 in - WNW 2.2 mph - N/A   Clear
1:45 PM 46.4 °F - 21.2 °F 37% 30.27 in - West 2.2 mph - N/A   Clear
2:15 PM 48.2 °F - 21.2 °F 34% 30.27 in - West 4.5 mph - N/A   Clear
2:45 PM - - - N/A% - - Variable 4.5 mph - N/A   Clear
3:15 PM 48.2 °F - 19.4 °F 32% 30.27 in - NNW 4.5 mph - N/A   Clear
3:45 PM 48.2 °F - 21.2 °F 34% 30.27 in - WNW 4.5 mph - N/A   Clear
4:15 PM 46.4 °F 43.0 °F 23.0 °F 40% 30.27 in - WNW 6.7 mph - N/A   Clear
4:45 PM 46.4 °F 44.4 °F 23.0 °F 40% 30.27 in - WNW 4.5 mph - N/A   Clear
5:15 PM 42.8 °F 40.2 °F 23.0 °F 46% 30.27 in - WNW 4.5 mph - N/A   Clear
5:45 PM - - - N/A% - - Variable 4.5 mph - N/A   Clear
6:15 PM 39.2 °F - 23.0 °F 52% 30.30 in - West 2.2 mph - N/A   Clear
6:45 PM 37.4 °F - 23.0 °F 56% 30.30 in - West 2.2 mph - N/A   Clear
7:45 PM 35.6 °F - 23.0 °F 60% 30.33 in - Calm Calm - N/A   Clear
8:15 PM 33.8 °F - 23.0 °F 65% 30.33 in - Calm Calm - N/A   Clear
8:45 PM - - - N/A% - - Variable 4.5 mph - N/A   Clear
9:15 PM 28.4 °F - 23.0 °F 80% 30.33 in - Calm Calm - N/A   Clear
9:45 PM 28.4 °F - 23.0 °F 80% 30.33 in - Calm Calm - N/A   Clear
10:15 PM 28.4 °F - 23.0 °F 80% 30.36 in 5.6 mi Calm Calm - N/A   Clear
10:45 PM 28.4 °F - 23.0 °F 80% 30.36 in 5.6 mi Calm Calm - N/A   Clear
11:15 PM 26.6 °F - 24.8 °F 93% 30.36 in 5.0 mi Calm Calm - N/A   Clear
11:45 PM - - - N/A% - 0.3 mi North - - N/A   Unknown